[Iaude] MPEC N61: 2024 NA1 [a=2.44,e=0.90,i=10.2,H=19.7]
    mpec at cfa.harvard.edu 
    mpec at cfa.harvard.edu
       
    Fri Jul  5 13:29:02 EDT 2024
    
    
  
M.P.E.C. 2024-N61                                  Issued 2024 July 5, 17:27 UT
     The Minor Planet Electronic Circulars contain information on unusual
         minor planets, routine data on comets and natural satellites,
         and occasional editorial announcements.  They are published
    on behalf of Division F of the International Astronomical Union by the
          Minor Planet Center, Smithsonian Astrophysical Observatory,
                          Cambridge, MA 02138, U.S.A.
			  
             Prepared using the Tamkin Foundation Computer Network
                              MPC at CFA.HARVARD.EDU
            URL https://www.minorplanetcenter.net/    ISSN 1523-6714
                                    2024 NA1                                    
Observations:
     K24N01A  C2024 06 30.56375022 53 47.089+03 06 27.43         19.93wXEN061F51
     K24N01A  C2024 06 30.57713922 53 40.095+03 05 33.08         19.95wXEN061F51
     K24N01A  C2024 06 30.59150122 53 32.638+03 04 35.16         19.97wXEN061F51
     K24N01A* C2024 07 01.58231622 45 09.062+01 57 55.44         19.47oVEN061T05
     K24N01A  C2024 07 01.58526622 45 07.646+01 57 43.09         19.23oVEN061T05
     K24N01A  C2024 07 01.59049822 45 04.793+01 57 22.36         18.98oVEN061T05
     K24N01A  C2024 07 01.61527322 44 52.099+01 55 41.95         19.10oVEN061T05
     K24N01A  C2024 07 02.17780022 40 09.86 +01 18 26.7                WEN061X09
     K24N01A  C2024 07 02.18318922 40 07.23 +01 18 03.9                WEN061X09
     K24N01A |C2024 07 02.34941222 38 42.450+01 06 58.20         19.7 GVEN061807
     K24N01A |C2024 07 02.35088322 38 41.690+01 06 52.50         19.6 GVEN061807
     K24N01A |C2024 07 02.35235422 38 40.960+01 06 46.60         19.6 GVEN061807
     K24N01A KB2024 07 03.16733 22 31 54.43 +00 12 16.3          19.6 VqEN061Y66
     K24N01A KB2024 07 03.16802 22 31 54.10 +00 12 13.6          19.8 VqEN061Y66
     K24N01A KB2024 07 03.16872 22 31 53.73 +00 12 11.0          19.6 VqEN061Y66
     K24N01A KB2024 07 03.16941 22 31 53.40 +00 12 08.2          19.8 VqEN061Y66
     K24N01A |C2024 07 03.28067022 30 58.530+00 05 12.40         20.0 GVEN061807
     K24N01A |C2024 07 03.28214022 30 57.820+00 05 06.50         19.4 GVEN061807
     K24N01A |C2024 07 03.28372022 30 56.980+00 05 00.40         19.7 GVEN061807
     K24N01A |C2024 07 03.28567022 30 56.030+00 04 52.80         19.4 GVEN061807
     K24N01A |C2024 07 03.28714022 30 55.310+00 04 47.30         19.3 GVEN061807
     K24N01A KC2024 07 03.96867 22 25 19.76 -00 39 58.3          19.4 GVEN061M21
     K24N01A KC2024 07 03.99936 22 25 04.46 -00 41 58.4          19.1 GVEN061M21
     K24N01A KB2024 07 04.01841422 24 55.10 -00 43 40.0          19.4 GXEN061958
     K24N01A KB2024 07 04.02226122 24 53.23 -00 43 55.1          19.1 GXEN061958
     K24N01A KC2024 07 04.02258622 24 52.80 -00 43 56.7          19.4 GVEN061203
     K24N01A KB2024 07 04.02605622 24 51.35 -00 44 10.4          19.5 GXEN061958
     K24N01A KC2024 07 04.03722622 24 45.56 -00 44 54.7          19.8 GVEN061203
     K24N01A KB2024 07 04.05265 22 24 37.91 -00 45 54.7                VEN061204
     K24N01A KB2024 07 04.06768 22 24 30.46 -00 46 53.5          19.5 GVEN061204
     K24N01A KC2024 07 04.28441222 22 45.20 -01 00 54.7          19.5 GXEN061858
     K24N01A KC2024 07 04.30019922 22 37.38 -01 01 56.5          19.0 GXEN061858
     K24N01A KC2024 07 04.43419 22 21 31.366-01 10 38.75         18.9 GVEN061U52
     K24N01A KC2024 07 04.43870 22 21 29.191-01 10 57.25         19.8 GVEN061U52
     K24N01A KC2024 07 04.44322 22 21 26.940-01 11 14.75         19.8 GVEN061U52
     K24N01A KB2024 07 04.96347 22 17 15.11 -01 44 44.3                XEN061M45
     K24N01A KB2024 07 04.96809 22 17 12.85 -01 45 01.8          19.6 GXEN061M45
     K24N01A KB2024 07 04.97253 22 17 10.64 -01 45 19.0          19.4 GXEN061M45
     K24N01A 0B2024 07 04.97353622 17 10.584-01 44 55.25         20.1 VZEN061M49
     K24N01A 0B2024 07 04.97884322 17 07.977-01 45 15.15         19.8 VZEN061M49
     K24N01A 0B2024 07 04.98413722 17 05.416-01 45 35.76         19.4 VZEN061M49
     K24N01A KB2024 07 04.98441322 17 05.24 -01 46 04.3          19.2 GXEN061I93
     K24N01A KB2024 07 04.98816622 17 03.44 -01 46 18.0          19.8 GXEN061I93
     K24N01A KB2024 07 04.99221422 17 01.46 -01 46 33.8          19.9 GXEN061I93
     K24N01A KC2024 07 05.00716 22 16 53.79 -01 47 25.9          18.7 GVEN061088
     K24N01A KC2024 07 05.00983 22 16 52.51 -01 47 35.2          18.7 GVEN061088
     K24N01A KC2024 07 05.01250 22 16 51.17 -01 47 46.2          18.7 GVEN061088
     K24N01A KC2024 07 05.01517 22 16 49.88 -01 47 56.3          18.7 GVEN061088
     K24N01A KC2024 07 05.01765 22 16 48.68 -01 48 06.2          18.9 GVEN061088
     K24N01A KC2024 07 05.01994 22 16 47.55 -01 48 14.6          18.9 GVEN061088
     K24N01A KB2024 07 05.03496522 16 40.354-01 49 19.70         19.6 VZEN061K74
     K24N01A KB2024 07 05.04493222 16 35.520-01 49 58.22         19.5 VZEN061K74
     K24N01A KC2024 07 05.41339 22 13 38.618-02 13 22.30         18.7 GVEN061U52
     K24N01A KC2024 07 05.41800 22 13 36.362-02 13 39.68         20.4 GVEN061U52
     K24N01A KC2024 07 05.42260 22 13 34.212-02 13 57.54         19.2 GVEN061U52
Observer details:
088 Kottomia.  Observers R. Hassan, M. Elhelaly.  Measurer A. M. Abdelaziz.
    1.88-m f/4.9 reflector + CCD.
203 GiaGa Observatory.  Observer G. Galli.  0.36-m f/5.76 Schmidt-Cassegrain +
    CCD.
204 Schiaparelli Observatory.  Observer L. Buzzi.  0.84-m f/3.5 reflector +
    CMO.
807 Cerro Tololo Observatory, La Serena.  Observers T. Linder, R. Holmes.
    0.61-m f/6.8 Ritchey-Chretien + CCD.
858 Tebbutt Observatory, Edgewood.  Observer F. B. Zoltowski.  0.16-m f/7
    Refractor + CCD.
958 Observatoire de Dax.  Observer P. Dupouy.  0.50-m f/4.5 Reflector + CMO.
F51 Pan-STARRS 1, Haleakala.  Observers J. Herman, T. Lowe, P. Minguez, A.
    Schultz, I. Smith.  Measurers K. Chambers, T. de Boer, J. Fairlamb, H.
    Gao, M. Huber, C.-C. Lin, E. Magnier, Y. Ramanjooloo, R. Wainscoat, R.
    Weryk.  1.8-m Ritchey-Chretien + CCD.
I93 St Pardon de Conques.  Observer F. Losse.  0.40-m f/3.7 reflector + CMO.
K74 Muensterschwarzach Observatory, Schwarzach.  Observer C. Gerhard.  0.30-m
    f/3.75 reflector + CMO.
M21 Schiaparelli Southern Observatory, Hakos.  Observers A. Aletti, F.
    Bellini, L. Buzzi, G. Galli.  Measurer G. Galli.  0.36-m f/8.4 reflector +
    CCD.
M45 Starhopper Observatory, Sfantu Gheorghe.  Observer F. Ursache.  0.41-m
    f/7.5 reflector + CMO.
M49 IAS Remote Observatory, Hakos.  Observers D. Husar, M. Junius, L. Demetz,
    P. Ditz, R. Hellot, T. Steinbach.  Measurer D. Husar.  0.25-m f/4.5
    reflector + CMO.
T05 ATLAS-HKO, Haleakala.  Observers L. Denneau, R. Siverd, J. Tonry, H.
    Weiland.  Measurers L. Denneau, N. Erasmus, A. Fitzsimmons, J. Robinson,
    R. Siverd, J. Tonry, H. Weiland.  0.5-m Reflector + CCD.
U52 Shasta Valley Observatory, Grenada.  Observers J. E. Rogers, B. Haeusler.
    Measurers J. E. Rogers, D. Parrott.  0.30-m f/5.2 Helin Telescope + CCD.
X09 Deep Random Survey, Rio Hurtado.  Observers A. Schnabel, D. Ruhela.
    Measurer S. Deen.  0.43-m reflector + CMOS.
Y66 Two-Meter Twin Telescope, TTT2, Teide.  Observer M. R. Alarcon.
    Measurer M. Serra-Ricart.  0.80-m f/4.38 reflector + CMO.
Orbital elements:
2024 NA1                                                 Earth MOID = 0.0627 AU
Epoch 2024 Mar. 31.0 TT = JDT 2460400.5                 Bell                    
M 349.11075              (2000.0)            P               Q                  
n   0.25845240     Peri.   31.55390     -0.93421399     -0.32856082             
a   2.4408944      Node   128.62003     +0.27894700     -0.91558616             
e   0.9030448      Incl.   10.24016     +0.22233486     -0.23183996             
P   3.81           H   19.79          G   0.15           U   9                  
Residuals in seconds of arc
240630 F51  0.0   0.0     240703 807  0.1+  0.3+    240704 M49  0.2-  0.2-
240630 F51 (0.3-  0.2-)   240703 807  0.4+  0.6+    240704 M49  0.3-  0.3+
240630 F51  0.0   0.0     240703 M21  0.3+  0.1-    240704 M49  0.2+  0.0
240701 T05  0.2-  0.1-    240703 M21  0.1-  0.2-    240704 I93  0.5-  0.3-
240701 T05  1.4+  0.5-    240704 958  0.3+  0.1+    240704 I93  0.1-  0.4+
240701 T05  0.9-  0.2-    240704 958  0.8+  0.1+    240704 I93  0.2-  0.1+
240701 T05  0.5+  0.9-    240704 203  0.5-  0.3+    240705 088  1.1+  0.6+
240702 X09  0.6-  1.6+    240704 958  0.8+  0.4-    240705 088  1.6+  1.6+
240702 X09  0.9+  0.4+    240704 203  0.1-  0.4-    240705 088  1.2+  0.8+
240702 807  0.2-  0.0     240704 204  0.1+  0.0     240705 088  1.5+  0.9+
240702 807  0.4-  0.2+    240704 204  0.4+  0.1-    240705 088  1.7+  0.6+
240702 807  0.0   0.2+    240704 858  0.3+  0.2+    240705 088  1.7+  0.9+
240703 Y66  0.4-  0.2+    240704 858  0.2-  0.2-    240705 K74  0.7-  0.1-
240703 Y66  0.0   0.2+    240704 U52  0.5-  0.5+    240705 K74  0.3-  0.4-
240703 Y66  0.3-  0.4+    240704 U52  0.4+  0.4-    240705 U52  0.1-  0.1-
240703 Y66  0.0   0.3+    240704 U52  0.1+  0.4-    240705 U52  0.4-  0.0
240703 807  0.2-  0.2+    240704 M45  0.1+  0.2-    240705 U52  0.9+  0.3-
240703 807  0.2+  0.1+    240704 M45  0.0   0.0
240703 807  0.4-  0.2+    240704 M45  0.6-  0.1-
Ephemeris:
2024 NA1                 a,e,i = 2.44, 0.90, 10                  q = 0.2367
Date    TT    R. A. (2000) Decl.     Delta      r    Elong.  Phase     V
2024 06 05    02 19 59.4 +24 03 54   0.4318  0.7058    35.0   124.5    22.4
...
2024 06 20    00 24 07.9 +14 15 19   0.3423  1.0015    77.8    82.7    20.4
...
2024 06 28    23 15 45.9 +05 59 08   0.3319  1.1434   104.0    59.6    19.8
...
2024 07 04    22 25 03.6 -00 42 07   0.3464  1.2440   124.0    42.7    19.6
2024 07 05    22 16 57.1 -01 46 43   0.3509  1.2603   127.2    40.0    19.6
2024 07 06    22 08 59.3 -02 49 57   0.3559  1.2765   130.4    37.3    19.6
...
2024 07 12    21 24 58.3 -08 30 47   0.3979  1.3713   148.3    22.9    19.6
...
2024 07 20    20 38 16.9 -14 03 17   0.4825  1.4919   168.3     7.9    19.6
...
2024 08 04    19 45 03.2 -19 32 46   0.7065  1.7024   162.8    10.2    20.8
M. P. C. Staff               (C) Copyright 2024 MPC           M.P.E.C. 2024-N61
    
    
More information about the Iaude
mailing list